Powrót do katalogu

ARIANE 44LP DEB

AktywnyGTO
NORAD 33541·DEBRIS·🇫🇷 France

Wystrzelony Dec 11, 1988 z Guiana Space Centre

Loading…

TLE

Starzejące sięSource: Space-Track

Epoka: Sep 14, 2026, 09:34 UTC

1 33541U 88109Q   26257.39918741  .00000019  00000-0  36476-2 0  9994
2 33541   6.6151 251.9870 7100753  35.5320  20.6215  2.23932978194320

Śledź ARIANE 44LP DEB w czasie rzeczywistym z AllMySat

Download on the App Store